Bastrop, LA

6:59 PM CDT on April 23, 2017 (GMT -0500)
Bastrop

Weather History for KBQP - June, 2013

Change the Weather History Date:

Monday, June 17, 2013

  Actual Average (KMLU) Record (KMLU)
Temperature  
Mean Temperature 82 °F -  
Max Temperature 91 °F 90 °F 101 °F (1936)
Min Temperature 73 °F 70 °F 58 °F (1933)
Cooling Degree Days 17    
Growing Degree Days 32 (Base 50)    
Moisture  
Dew Point 74 °F    
Average Humidity 80    
Maximum Humidity 92    
Minimum Humidity 51    
Precipitation  
Precipitation 0.22 in - - ()
Sea Level Pressure  
Sea Level Pressure 29.95 in    
Wind  
Wind Speed 1 mph (SW)    
Max Wind Speed 13 mph    
Max Gust Speed 16 mph    
Visibility 8 miles    
Events Rain , Thunderstorm    
Averages and records for this station are not official NWS values.
T = Trace of Precipitation, MM = Missing Value Source: NWS Daily Summary

Daily Weather History Graph

Daily Weather History Graph

Search for Another Location

Airport or City:

Trip Planner

Search our weather history database for the weather conditions in past years. The results will help you decide how hot, cold, wet, or windy it might be!

Date:

Astronomy

Jun. 17, 2013 Rise Set
Actual Time 5:59 AM CDT 8:17 PM CDT
Civil Twilight 5:30 AM CDT 8:46 PM CDT
Nautical Twilight 4:55 AM CDT 9:21 PM CDT
Astronomical Twilight 4:17 AM CDT 9:59 PM CDT
Moon 2:12 PM CDT (6/17) 1:17 AM CDT (6/17)
Length of Visible Light 15h 15m
Length of Day
14h 18m
First Quarter, 60% of the Moon is Illuminated
Jun 17
First Quarter
Jun 23
Full
Jun 29
Last Quarter
Jul 8
New
Jul 15
First Quarter

Hourly Weather History & Observations

Time (CDT) Temp. Heat Index Dew Point Humidity Pressure Visibility Wind Dir Wind Speed Gust Speed Precip Events Conditions
12:15 AM 75.4 °F - 72.1 °F 90% 29.99 in 10.0 mi Calm Calm - N/A   Clear
12:35 AM 74.7 °F - 72.0 °F 91% 29.98 in 7.0 mi Calm Calm - N/A   Clear
12:55 AM 74.7 °F - 72.0 °F 91% 29.99 in 10.0 mi Calm Calm - N/A   Clear
1:15 AM 74.7 °F - 72.0 °F 91% 29.99 in 7.0 mi Calm Calm - N/A   Clear
1:35 AM 75.0 °F - 72.5 °F 92% 29.99 in 5.0 mi Calm Calm - N/A   Clear
1:55 AM 75.4 °F - 72.3 °F 90% 29.99 in 10.0 mi Calm Calm - N/A   Clear
2:15 AM 74.7 °F - 72.0 °F 91% 29.98 in 5.0 mi Calm Calm - N/A   Clear
2:35 AM 74.3 °F - 71.8 °F 92% 29.98 in 4.0 mi Calm Calm - N/A   Clear
2:55 AM 73.9 °F - 71.6 °F 92% 29.97 in 2.5 mi Calm Calm - N/A   Clear
3:15 AM 73.8 °F - 71.2 °F 92% 29.96 in 4.0 mi Calm Calm - N/A   Clear
3:35 AM 73.6 °F - 71.2 °F 92% 29.94 in 3.0 mi Calm Calm - N/A   Clear
3:55 AM 73.8 °F - 71.2 °F 92% 29.94 in 5.0 mi Calm Calm - N/A   Clear
4:15 AM 73.6 °F - 71.1 °F 92% 29.94 in 4.0 mi Calm Calm - N/A   Clear
4:35 AM 73.2 °F - 70.9 °F 92% 29.94 in 4.0 mi Calm Calm - N/A   Clear
4:55 AM 74.1 °F - 71.8 °F 92% 29.94 in 5.0 mi Calm Calm - N/A   Clear
5:15 AM 74.7 °F - 72.0 °F 91% 29.94 in 7.0 mi Calm Calm - N/A   Clear
5:35 AM 75.4 °F - 72.3 °F 90% 29.95 in 10.0 mi Calm Calm - N/A   Clear
5:55 AM 76.1 °F - 72.5 °F 89% 29.96 in 10.0 mi Calm Calm - N/A   Clear
6:15 AM 75.9 °F - 72.5 °F 89% 29.97 in 7.0 mi Calm Calm - N/A   Clear
6:35 AM 75.7 °F - 72.5 °F 90% 29.97 in 7.0 mi Calm Calm - N/A   Clear
6:55 AM 77.2 °F - 73.4 °F 88% 29.98 in 10.0 mi SW 5.8 mph - N/A   Clear
7:15 AM 78.3 °F - 73.6 °F 85% 29.98 in 10.0 mi Calm Calm - N/A   Clear
7:35 AM 79.2 °F - 73.8 °F 83% 29.97 in 10.0 mi Calm Calm - N/A   Clear
7:55 AM 80.4 °F 85.6 °F 74.7 °F 83% 29.96 in 10.0 mi West 3.5 mph - N/A   Clear
8:15 AM 81.5 °F 87.6 °F 74.8 °F 80% 29.97 in 10.0 mi Calm Calm - N/A   Clear
8:35 AM 82.6 °F 89.9 °F 75.4 °F 79% 29.96 in 10.0 mi SW 9.2 mph - N/A   Clear
8:55 AM 83.7 °F 91.7 °F 75.4 °F 76% 29.97 in 10.0 mi West 8.1 mph - N/A   Clear
9:15 AM 84.4 °F 92.7 °F 75.2 °F 74% 29.97 in 10.0 mi WSW 11.5 mph - N/A   Clear
9:35 AM 85.1 °F 93.3 °F 74.8 °F 71% 29.98 in 10.0 mi West 8.1 mph - N/A   Clear
9:55 AM 85.6 °F 93.4 °F 73.9 °F 68% 29.99 in 10.0 mi WSW 10.4 mph - N/A   Clear
10:15 AM 86.2 °F 94.6 °F 74.3 °F 68% 29.99 in 10.0 mi Calm Calm - N/A   Clear
10:35 AM 87.8 °F 96.6 °F 74.5 °F 64% 29.99 in 10.0 mi SW 8.1 mph - N/A   Scattered Clouds
10:55 AM 88.7 °F 97.7 °F 74.1 °F 62% 30.00 in 10.0 mi SW 9.2 mph 16.1 mph N/A   Scattered Clouds
11:15 AM 89.6 °F 97.7 °F 73.2 °F 58% 30.01 in 10.0 mi SSW 9.2 mph - N/A   Scattered Clouds
11:35 AM 90.1 °F 98.3 °F 73.2 °F 57% 30.00 in 10.0 mi SW 9.2 mph - N/A   Scattered Clouds
11:55 AM 89.6 °F 96.6 °F 72.1 °F 56% 30.00 in 10.0 mi SW 12.7 mph - N/A   Scattered Clouds
12:15 PM 90.3 °F 97.2 °F 71.8 °F 54% 29.99 in 10.0 mi South 11.5 mph - N/A   Clear
12:35 PM 91.4 °F 97.8 °F 71.2 °F 51% 29.98 in 10.0 mi SSW 10.4 mph - N/A   Clear
12:55 PM 89.1 °F 96.0 °F 71.8 °F 57% 29.97 in 10.0 mi Calm Calm - N/A   Scattered Clouds
1:15 PM 88.9 °F 96.1 °F 72.3 °F 58% 29.95 in 10.0 mi SSW 4.6 mph - N/A   Clear
1:35 PM 89.1 °F 97.0 °F 72.9 °F 59% 29.94 in 10.0 mi Calm Calm - N/A Thunderstorm Clear
1:55 PM 91.2 °F 100.8 °F 74.3 °F 57% 29.92 in 10.0 mi Calm Calm - N/A   Clear
2:15 PM 88.7 °F 96.2 °F 72.7 °F 59% 29.93 in 10.0 mi Calm Calm - N/A Thunderstorm Clear
2:35 PM 87.4 °F 94.8 °F 72.9 °F 62% 29.92 in 10.0 mi Calm Calm - N/A Thunderstorm Thunderstorm
2:55 PM 77.9 °F - 74.1 °F 88% 29.93 in 1.5 mi Calm Calm - 0.22 in Rain , Thunderstorm Heavy Thunderstorms and Rain
3:15 PM 78.4 °F - 75.6 °F 91% 29.92 in 4.0 mi Calm Calm - N/A   Scattered Clouds
3:35 PM 79.3 °F - 75.4 °F 88% 29.91 in 10.0 mi Calm Calm - N/A   Mostly Cloudy
3:55 PM 80.2 °F 85.4 °F 74.8 °F 84% 29.91 in 10.0 mi Calm Calm - N/A   Scattered Clouds
4:15 PM 80.8 °F 86.3 °F 74.8 °F 82% 29.91 in 10.0 mi Calm Calm - N/A   Scattered Clouds
4:35 PM 81.5 °F 87.6 °F 74.7 °F 80% 29.91 in 10.0 mi Calm Calm - N/A   Scattered Clouds
4:55 PM 81.9 °F 88.7 °F 75.4 °F 81% 29.92 in 10.0 mi Calm Calm - N/A   Mostly Cloudy
5:15 PM 82.8 °F 90.4 °F 75.7 °F 79% 29.91 in 10.0 mi Calm Calm - N/A   Mostly Cloudy
5:35 PM 85.1 °F 94.9 °F 76.5 °F 75% 29.91 in 10.0 mi Calm Calm - N/A   Scattered Clouds
5:55 PM 85.3 °F 93.7 °F 74.8 °F 71% 29.90 in 10.0 mi SW 4.6 mph - N/A   Clear
6:15 PM 85.3 °F 93.7 °F 74.8 °F 71% 29.90 in 10.0 mi SW 5.8 mph - N/A   Clear
6:35 PM 85.1 °F 92.9 °F 74.5 °F 70% 29.90 in 10.0 mi Calm Calm - N/A   Clear
6:55 PM 85.6 °F 94.6 °F 75.2 °F 71% 29.90 in 10.0 mi Calm Calm - N/A   Clear
7:15 PM 85.1 °F 94.1 °F 75.4 °F 73% 29.90 in 10.0 mi Calm Calm - N/A   Clear
7:35 PM 84.4 °F 92.7 °F 75.4 °F 74% 29.90 in 10.0 mi Calm Calm - N/A   Clear
7:55 PM 83.7 °F 92.0 °F 75.7 °F 77% 29.90 in 10.0 mi Calm Calm - N/A   Clear
8:15 PM 79.9 °F - 76.5 °F 89% 29.90 in 5.0 mi Calm Calm - N/A   Clear
8:35 PM 79.0 °F - 76.1 °F 91% 29.90 in 4.0 mi Calm Calm - N/A   Clear
8:55 PM 77.9 °F - 75.2 °F 91% 29.90 in 4.0 mi Calm Calm - N/A   Scattered Clouds
9:15 PM 77.9 °F - 75.4 °F 92% 29.91 in 2.5 mi Calm Calm - N/A   Mostly Cloudy
9:35 PM 77.9 °F - 75.2 °F 91% 29.91 in 4.0 mi Calm Calm - N/A   Overcast
9:55 PM 77.5 °F - 75.0 °F 92% 29.92 in 3.0 mi Calm Calm - N/A   Mostly Cloudy
10:15 PM 77.4 °F - 74.8 °F 92% 29.92 in 3.0 mi Calm Calm - N/A   Scattered Clouds
10:35 PM 76.8 °F - 74.3 °F 92% 29.92 in 2.5 mi Calm Calm - N/A   Scattered Clouds
10:55 PM 76.5 °F - 73.9 °F 92% 29.92 in 2.5 mi Calm Calm - N/A   Scattered Clouds
11:15 PM 76.1 °F - 73.4 °F 91% 29.92 in 2.5 mi Calm Calm - N/A   Mostly Cloudy
11:35 PM 76.5 °F - 73.9 °F 92% 29.92 in 4.0 mi Calm Calm - N/A   Mostly Cloudy
11:55 PM 77.2 °F - 74.5 °F 91% 29.91 in 7.0 mi Calm Calm - N/A   Scattered Clouds